Time,TemperatureF,DewpointF,PressureIn,WindDirection,WindDirectionDegrees,WindSpeedMPH,WindSpeedGustMPH,Humidity,HourlyPrecipIn,Conditions,Clouds,dailyrainin,SoftwareType,DateUTC
2013-01-23 00:07:00,28.9,27.0,30.27,WNW,298,0.0,1.0,93,0.00,,,0.00,weatherlink.com 1.10,2013-01-23 05:07:00,
2013-01-23 00:23:00,29.0,27.0,30.27,WNW,300,0.0,1.0,93,0.00,,,0.00,weatherlink.com 1.10,2013-01-23 05:23:00,
2013-01-23 00:37:00,28.9,27.0,30.27,WNW,299,0.0,1.0,93,0.00,,,0.00,weatherlink.com 1.10,2013-01-23 05:37:00,
2013-01-23 00:53:00,28.6,27.0,30.27,WNW,300,0.0,1.0,94,0.00,,,0.00,weatherlink.com 1.10,2013-01-23 05:53:00,
2013-01-23 01:08:00,28.5,27.0,30.27,WNW,300,0.0,1.0,94,0.00,,,0.00,weatherlink.com 1.10,2013-01-23 06:08:00,
2013-01-23 01:23:00,28.3,27.0,30.27,WNW,300,0.0,0.0,94,0.00,,,0.00,weatherlink.com 1.10,2013-01-23 06:23:00,
2013-01-23 01:38:00,27.9,26.0,30.27,WNW,300,0.0,1.0,94,0.00,,,0.00,weatherlink.com 1.10,2013-01-23 06:38:00,
2013-01-23 01:53:00,27.9,27.0,30.27,WNW,296,1.0,1.0,95,0.00,,,0.00,weatherlink.com 1.10,2013-01-23 06:53:00,
2013-01-23 02:08:00,28.5,27.0,30.27,WNW,297,0.0,1.0,95,0.00,,,0.00,weatherlink.com 1.10,2013-01-23 07:08:00,
2013-01-23 02:23:00,28.5,27.0,30.27,WNW,297,0.0,1.0,95,0.00,,,0.00,weatherlink.com 1.10,2013-01-23 07:23:00,
2013-01-23 02:38:00,28.5,28.0,30.28,WNW,297,0.0,0.0,96,0.00,,,0.00,weatherlink.com 1.10,2013-01-23 07:38:00,
2013-01-23 02:53:00,28.8,28.0,30.28,WNW,296,0.0,0.0,96,0.00,,,0.00,weatherlink.com 1.10,2013-01-23 07:53:00,
2013-01-23 03:08:00,29.3,28.0,30.28,WSW,242,0.0,1.0,96,0.00,,,0.00,weatherlink.com 1.10,2013-01-23 08:08:00,
2013-01-23 03:23:00,29.9,29.0,30.29,NW,314,0.0,1.0,95,0.00,,,0.00,weatherlink.com 1.10,2013-01-23 08:23:00,
2013-01-23 03:38:00,31.0,29.0,30.29,WNW,298,0.0,1.0,90,0.00,,,0.00,weatherlink.com 1.10,2013-01-23 08:38:00,
2013-01-23 03:53:00,30.6,28.0,30.29,NW,309,0.0,1.0,88,0.00,,,0.00,weatherlink.com 1.10,2013-01-23 08:53:00,
2013-01-23 04:08:00,31.0,27.0,30.29,West,266,0.0,1.0,84,0.00,,,0.00,weatherlink.com 1.10,2013-01-23 09:08:00,
2013-01-23 04:23:00,31.0,26.0,30.29,SW,228,0.0,1.0,82,0.00,,,0.00,weatherlink.com 1.10,2013-01-23 09:23:00,
2013-01-23 04:38:00,30.3,26.0,30.29,SW,227,0.0,1.0,84,0.00,,,0.00,weatherlink.com 1.10,2013-01-23 09:38:00,
2013-01-23 04:53:00,29.4,26.0,30.29,SW,228,0.0,1.0,85,0.00,,,0.00,weatherlink.com 1.10,2013-01-23 09:53:00,
2013-01-23 05:08:00,28.8,25.0,30.30,SW,227,0.0,1.0,87,0.00,,,0.00,weatherlink.com 1.10,2013-01-23 10:08:00,
2013-01-23 05:23:00,28.2,25.0,30.30,WSW,256,0.0,1.0,88,0.00,,,0.00,weatherlink.com 1.10,2013-01-23 10:23:00,
2013-01-23 05:38:00,27.9,25.0,30.32,WSW,258,0.0,0.0,90,0.00,,,0.00,weatherlink.com 1.10,2013-01-23 10:38:00,
2013-01-23 05:53:00,27.6,25.0,30.32,SSW,196,0.0,1.0,90,0.00,,,0.00,weatherlink.com 1.10,2013-01-23 10:53:00,
2013-01-23 06:08:00,27.5,25.0,30.32,NNE,17,0.0,1.0,89,0.00,,,0.00,weatherlink.com 1.10,2013-01-23 11:08:00,
2013-01-23 06:23:00,27.1,24.0,30.33,WSW,240,0.0,2.0,86,0.00,,,0.00,weatherlink.com 1.10,2013-01-23 11:23:00,
2013-01-23 06:38:00,27.1,21.0,30.34,WNW,297,0.0,1.0,79,0.00,,,0.00,weatherlink.com 1.10,2013-01-23 11:38:00,
2013-01-23 06:53:00,27.0,20.0,30.34,NW,316,0.0,2.0,74,0.00,,,0.00,weatherlink.com 1.10,2013-01-23 11:53:00,
2013-01-23 07:08:00,26.7,18.0,30.35,WSW,256,0.0,1.0,71,0.00,,,0.00,weatherlink.com 1.10,2013-01-23 12:08:00,
2013-01-23 07:23:00,26.7,18.0,30.36,WSW,248,0.0,1.0,70,0.00,,,0.00,weatherlink.com 1.10,2013-01-23 12:23:00,
2013-01-23 07:38:00,26.9,17.0,30.36,SE,128,0.0,2.0,65,0.00,,,0.00,weatherlink.com 1.10,2013-01-23 12:38:00,
2013-01-23 07:53:00,27.5,16.0,30.37,NW,315,0.0,2.0,61,0.00,,,0.00,weatherlink.com 1.10,2013-01-23 12:53:00,
2013-01-23 08:08:00,28.1,16.0,30.37,NNW,328,0.0,1.0,61,0.00,,,0.00,weatherlink.com 1.10,2013-01-23 13:08:00,
2013-01-23 08:23:00,29.3,16.0,30.37,West,272,0.0,2.0,58,0.00,,,0.00,weatherlink.com 1.10,2013-01-23 13:23:00,
2013-01-23 08:38:00,31.0,17.0,30.38,SE,134,1.0,2.0,56,0.00,,,0.00,weatherlink.com 1.10,2013-01-23 13:38:00,
2013-01-23 08:54:00,32.5,17.0,30.38,East,87,1.0,2.0,54,0.00,,,0.00,weatherlink.com 1.10,2013-01-23 13:54:00,
2013-01-23 09:09:00,34.3,20.0,30.38,NNW,339,3.0,3.0,55,0.00,,,0.00,weatherlink.com 1.10,2013-01-23 14:09:00,
2013-01-23 09:24:00,36.4,21.0,30.39,ENE,57,3.0,3.0,54,0.00,,,0.00,weatherlink.com 1.10,2013-01-23 14:24:00,
2013-01-23 09:39:00,37.9,23.0,30.40,East,100,3.0,7.0,55,0.00,,,0.00,weatherlink.com 1.10,2013-01-23 14:39:00,
2013-01-23 09:54:00,38.8,24.0,30.40,ENE,77,2.0,7.0,55,0.00,,,0.00,weatherlink.com 1.10,2013-01-23 14:54:00,
2013-01-23 10:09:00,39.1,24.0,30.40,ENE,67,4.0,8.0,55,0.00,,,0.00,weatherlink.com 1.10,2013-01-23 15:09:00,
2013-01-23 10:24:00,39.7,24.0,30.40,ENE,70,2.0,10.0,53,0.00,,,0.00,weatherlink.com 1.10,2013-01-23 15:24:00,
2013-01-23 10:39:00,39.4,23.0,30.40,East,87,5.0,11.0,53,0.00,,,0.00,weatherlink.com 1.10,2013-01-23 15:39:00,
2013-01-23 10:54:00,39.9,23.0,30.40,ENE,67,4.0,10.0,52,0.00,,,0.00,weatherlink.com 1.10,2013-01-23 15:54:00,
2013-01-23 11:09:00,40.0,24.0,30.40,SE,127,4.0,11.0,53,0.00,,,0.00,weatherlink.com 1.10,2013-01-23 16:09:00,
2013-01-23 11:24:00,40.6,24.0,30.39,NW,318,2.0,10.0,52,0.00,,,0.00,weatherlink.com 1.10,2013-01-23 16:24:00,
2013-01-23 11:39:00,41.0,24.0,30.39,East,83,4.0,8.0,51,0.00,,,0.00,weatherlink.com 1.10,2013-01-23 16:39:00,
2013-01-23 11:54:00,40.2,24.0,30.38,East,97,3.0,8.0,53,0.00,,,0.00,weatherlink.com 1.10,2013-01-23 16:54:00,
2013-01-23 12:09:00,40.1,23.0,30.38,East,82,7.0,10.0,51,0.00,,,0.00,weatherlink.com 1.10,2013-01-23 17:09:00,
2013-01-23 12:24:00,41.2,24.0,30.37,East,91,4.0,8.0,50,0.00,,,0.00,weatherlink.com 1.10,2013-01-23 17:24:00,
2013-01-23 12:39:00,41.3,24.0,30.36,ENE,76,6.0,8.0,50,0.00,,,0.00,weatherlink.com 1.10,2013-01-23 17:39:00,
2013-01-23 12:54:00,42.1,24.0,30.35,East,101,2.0,8.0,48,0.00,,,0.00,weatherlink.com 1.10,2013-01-23 17:54:00,
2013-01-23 13:09:00,42.1,22.0,30.34,East,101,7.0,7.0,45,0.00,,,0.00,weatherlink.com 1.10,2013-01-23 18:09:00,
2013-01-23 13:24:00,42.2,21.0,30.33,East,80,4.0,6.0,43,0.00,,,0.00,weatherlink.com 1.10,2013-01-23 18:24:00,
2013-01-23 13:39:00,42.4,19.0,30.32,ENE,71,3.0,7.0,39,0.00,,,0.00,weatherlink.com 1.10,2013-01-23 18:39:00,
2013-01-23 13:54:00,43.1,21.0,30.31,WSW,242,0.0,4.0,42,0.00,,,0.00,weatherlink.com 1.10,2013-01-23 18:54:00,
2013-01-23 14:09:00,42.9,20.0,30.30,East,91,2.0,8.0,40,0.00,,,0.00,weatherlink.com 1.10,2013-01-23 19:09:00,
2013-01-23 14:24:00,43.2,21.0,30.30,ENE,68,3.0,6.0,42,0.00,,,0.00,weatherlink.com 1.10,2013-01-23 19:24:00,
2013-01-23 14:39:00,43.6,23.0,30.29,ESE,120,2.0,5.0,45,0.00,,,0.00,weatherlink.com 1.10,2013-01-23 19:39:00,
2013-01-23 14:54:00,43.5,24.0,30.28,NNE,18,1.0,8.0,46,0.00,,,0.00,weatherlink.com 1.10,2013-01-23 19:54:00,
2013-01-23 15:09:00,43.9,25.0,30.28,East,90,2.0,5.0,47,0.00,,,0.00,weatherlink.com 1.10,2013-01-23 20:09:00,
2013-01-23 15:24:00,43.8,24.0,30.28,East,87,5.0,6.0,46,0.00,,,0.00,weatherlink.com 1.10,2013-01-23 20:24:00,
2013-01-23 15:39:00,44.5,25.0,30.28,SSE,162,1.0,3.0,47,0.00,,,0.00,weatherlink.com 1.10,2013-01-23 20:39:00,
2013-01-23 15:54:00,44.7,26.0,30.28,SW,219,1.0,6.0,49,0.00,,,0.00,weatherlink.com 1.10,2013-01-23 20:54:00,
2013-01-23 16:09:00,44.2,26.0,30.28,East,82,0.0,6.0,50,0.00,,,0.00,weatherlink.com 1.10,2013-01-23 21:09:00,
2013-01-23 16:24:00,43.9,28.0,30.28,SSW,201,0.0,2.0,53,0.00,,,0.00,weatherlink.com 1.10,2013-01-23 21:24:00,
2013-01-23 16:43:00,43.4,28.0,30.28,ENE,63,3.0,4.0,54,0.00,,,0.00,weatherlink.com 1.10,2013-01-23 21:43:00,
2013-01-23 16:54:00,42.9,28.0,30.28,ENE,77,1.0,2.0,57,0.00,,,0.00,weatherlink.com 1.10,2013-01-23 21:54:00,
2013-01-23 17:09:00,42.6,29.0,30.28,ENE,75,0.0,1.0,60,0.00,,,0.00,weatherlink.com 1.10,2013-01-23 22:09:00,
2013-01-23 17:24:00,41.7,29.0,30.27,ENE,67,0.0,3.0,62,0.00,,,0.00,weatherlink.com 1.10,2013-01-23 22:24:00,
2013-01-23 17:39:00,40.1,29.0,30.28,ENE,67,0.0,0.0,66,0.00,,,0.00,weatherlink.com 1.10,2013-01-23 22:39:00,
2013-01-23 18:10:00,37.2,30.0,30.27,ENE,67,0.0,0.0,74,0.00,,,0.00,weatherlink.com 1.10,2013-01-23 23:10:00,
2013-01-23 18:25:00,36.2,29.0,30.27,ENE,67,0.0,0.0,76,0.00,,,0.00,weatherlink.com 1.10,2013-01-23 23:25:00,
2013-01-23 18:40:00,35.3,29.0,30.28,ENE,67,0.0,0.0,79,0.00,,,0.00,weatherlink.com 1.10,2013-01-23 23:40:00,
2013-01-23 18:55:00,34.5,29.0,30.28,ENE,67,0.0,0.0,81,0.00,,,0.00,weatherlink.com 1.10,2013-01-23 23:55:00,
2013-01-23 19:10:00,34.1,30.0,30.27,ENE,67,0.0,0.0,83,0.00,,,0.00,weatherlink.com 1.10,2013-01-24 00:10:00,
2013-01-23 19:25:00,34.0,30.0,30.27,ENE,67,0.0,1.0,85,0.00,,,0.00,weatherlink.com 1.10,2013-01-24 00:25:00,
2013-01-23 19:40:00,33.7,30.0,30.26,ENE,67,0.0,0.0,85,0.00,,,0.00,weatherlink.com 1.10,2013-01-24 00:40:00,
2013-01-23 19:55:00,34.0,31.0,30.25,ENE,67,0.0,1.0,87,0.00,,,0.00,weatherlink.com 1.10,2013-01-24 00:55:00,
2013-01-23 20:10:00,35.7,32.0,30.24,SW,232,0.0,1.0,87,0.00,,,0.00,weatherlink.com 1.10,2013-01-24 01:10:00,
2013-01-23 20:25:00,35.8,32.0,30.24,SW,231,0.0,0.0,86,0.00,,,0.00,weatherlink.com 1.10,2013-01-24 01:25:00,
2013-01-23 20:40:00,35.2,32.0,30.24,SW,232,0.0,0.0,87,0.00,,,0.00,weatherlink.com 1.10,2013-01-24 01:40:00,
2013-01-23 20:55:00,35.5,33.0,30.23,SW,232,0.0,0.0,89,0.00,,,0.00,weatherlink.com 1.10,2013-01-24 01:55:00,
2013-01-23 21:10:00,35.6,33.0,30.23,SW,231,0.0,0.0,90,0.00,,,0.00,weatherlink.com 1.10,2013-01-24 02:10:00,
2013-01-23 21:25:00,35.1,32.0,30.23,SW,232,0.0,0.0,89,0.00,,,0.00,weatherlink.com 1.10,2013-01-24 02:25:00,
2013-01-23 21:40:00,34.6,32.0,30.22,SW,232,0.0,0.0,90,0.00,,,0.00,weatherlink.com 1.10,2013-01-24 02:40:00,
2013-01-23 21:55:00,34.4,32.0,30.22,SW,231,0.0,0.0,90,0.00,,,0.00,weatherlink.com 1.10,2013-01-24 02:55:00,
2013-01-23 22:10:00,34.1,32.0,30.22,SW,232,0.0,0.0,91,0.00,,,0.00,weatherlink.com 1.10,2013-01-24 03:10:00,
2013-01-23 22:25:00,34.4,32.0,30.22,SW,231,0.0,1.0,92,0.00,,,0.00,weatherlink.com 1.10,2013-01-24 03:25:00,
2013-01-23 22:40:00,37.3,36.0,30.21,WSW,238,1.0,2.0,95,0.00,,,0.00,weatherlink.com 1.10,2013-01-24 03:40:00,
2013-01-23 22:55:00,40.6,38.0,30.20,WSW,240,0.0,2.0,89,0.00,,,0.00,weatherlink.com 1.10,2013-01-24 03:55:00,
2013-01-23 23:10:00,42.0,38.0,30.20,WSW,253,2.0,2.0,85,0.00,,,0.00,weatherlink.com 1.10,2013-01-24 04:10:00,
2013-01-23 23:25:00,42.6,38.0,30.19,South,175,1.0,3.0,82,0.00,,,0.00,weatherlink.com 1.10,2013-01-24 04:25:00,
2013-01-23 23:40:00,42.7,37.0,30.18,WSW,250,2.0,5.0,80,0.00,,,0.00,weatherlink.com 1.10,2013-01-24 04:40:00,
2013-01-23 23:55:00,42.9,36.0,30.18,West,264,1.0,4.0,78,0.00,,,0.00,weatherlink.com 1.10,2013-01-24 04:55:00,